Regional Weather Roundup
Issued by NWS

Home | Current Version | Previous Version | Graphics & Text | Print | Product List | Glossary On
Versions: 1 2 3 4 5 6 7 8 9 10 11 12 13 14 15 16 17 18 19 20 21 22 23 24 25 26 27 28 29 30 31 32 33 34 35 36 37 38 39 40 41 42 43 44 45 46 47 48 49 50
000
ASUS43 KDMX 271807
RWRIA

WEATHER ROUNDUP FOR IOWA
NATIONAL WEATHER SERVICE DES MOINES IA
100 PM CDT WED AUG 27 2014

NOTE: "FAIR" INDICATES FEW OR NO CLOUDS BELOW 12,000 FEET WITH NO
SIGNIFICANT WEATHER AND/OR OBSTRUCTIONS TO VISIBILITY.

* - THESE STATIONS ARE NOT NWS STATIONS...THUS NOT UNDER NWS
QUALITY CONTROL.  THEY ALSO DO NOT REPORT WEATHER SUCH
AS PRECIPITATION OR FOG.

IAZ001>003-012>014-020>022-031>034-043>046-271900-
   NORTHWEST IOWA

CITY           SKY/WX    TMP DP  RH WIND       PRES   REMARKS
CARROLL *      CLOUDY    68  66  94 NE7       30.18F
CHEROKEE *     CLOUDY    69  64  82 SE5       30.18F
DENISON *      DRIZZLE   68  68 100 E9        30.12F
LE MARS *      PTSUNNY   68  63  83 VRB6G13   30.16F
ORANGE CITY *  MOSUNNY   70  59  68 SE8       30.17F
SHELDON *      SUNNY     68  61  77 SE10      30.18F
SIOUX CITY     LGT RAIN  67  65  93 E10       30.13F
6HR MIN TEMP:  64; 6HR MAX TEMP:  67; 6HR PCP:  0.20;

SPENCER          N/A     69  60  73 SE9       30.20F
6HR MIN TEMP:  58; 6HR MAX TEMP:  69;

STORM LAKE *   PTSUNNY   68  66  94 SE10      30.19F
$$

IAZ055>058-069>071-079>083-090>094-271900-
   SOUTHWEST IOWA

CITY           SKY/WX    TMP DP  RH WIND       PRES   REMARKS
ATLANTIC *     LGT RAIN  68  68 100 SE3       30.17F
AUDUBON *      RAIN      70  66  88 SE3       30.18F
CLARINDA *     LGT RAIN  70  70 100 N6        30.17F
COUNCIL BLFS * LGT RAIN  68  68 100 SE14      30.14F
CRESTON *      RAIN      70  70 100 W8        30.19F
HARLAN  *      PTSUNNY   68  68 100 E7        30.19F
LAMONI         PTSUNNY   72  68  87 NW5       30.17F
6HR MIN TEMP:  68; 6HR MAX TEMP:  72; 6HR PCP:  0.30;

RED OAK *      PTSUNNY   70  68  94 CALM      30.18F FOG
SHENANDOAH *   CLOUDY    70  68  94 E8        30.17F
$$

IAZ047>049-059>061-072>074-084-271900-
   CENTRAL IOWA

CITY           SKY/WX    TMP DP  RH WIND       PRES   REMARKS
AMES           CLOUDY    72  64  76 E6        30.19S
6HR MIN TEMP:  64; 6HR MAX TEMP:  73;

ANKENY *       CLOUDY    72  66  83 E5        30.17F
CHARITON *     PTSUNNY   73  70  88 S5        30.18S
DES MOINES     LGT RAIN  74  65  73 CALM      30.17F
6HR MIN TEMP:  68; 6HR MAX TEMP:  75; 6HR PCP:  0.01;

GRINNELL*      CLOUDY    72  64  78 E6        30.18F
KNOXVILLE *    MOSUNNY   72  66  83 SE3       30.17R
MARSHALLTOWN   CLOUDY    72  62  71 E6        30.18F
6HR MIN TEMP:  63; 6HR MAX TEMP:  73;

PELLA *          N/A     74  66  74 CALM      30.18F
PERRY *        DRIZZLE   70  66  88 CALM      30.19S
$$

IAZ004>006-015-016-023>025-035-036-271900-
   NORTH CENTRAL IOWA

CITY           SKY/WX    TMP DP  RH WIND       PRES   REMARKS
ALGONA *       SUNNY     72  61  68 S8        30.20F
CLARION *      SUNNY     72  61  68 CALM      30.21S
ESTHERVILLE      N/A     67  59  75 SE7       30.20F
6HR MIN TEMP:  54; 6HR MAX TEMP:  68;

FORT DODGE *   PTSUNNY   70  63  78 E5        30.20F
MASON CITY       N/A     72  58  61 S5        30.22S
6HR MIN TEMP:  56; 6HR MAX TEMP:  73;

FOREST CITY *  MOSUNNY   72  55  56 SE6       30.21R
IOWA FALLS *   PTSUNNY   72  61  69 E5        30.21S
$$

IAZ007>011-017>019-026>030-037>042-050>054-066-271900-
   NORTHEAST IOWA

CITY           SKY/WX    TMP DP  RH WIND       PRES   REMARKS
CEDAR RAPIDS   PTSUNNY   73  63  70 CALM      30.18F
6HR MIN TEMP:  65; 6HR MAX TEMP:  73;

CHARLES CITY * MOSUNNY   72  57  60 E5        30.21S
CLINTON *        N/A     75  61  60 N3        30.19F
DUBUQUE          N/A     74  54  49 CALM      30.20S
6HR MIN TEMP:  61; 6HR MAX TEMP:  75;

MONTICELLO *   MOSUNNY   73  61  64 CALM      30.18F
OELWEIN *      SUNNY     73  57  56 CALM      30.21S
WATERLOO       PTSUNNY   74  57  55 SE5       30.19R
6HR MIN TEMP:  61; 6HR MAX TEMP:  74;

$$

IAZ064-065-067-068-078-271900-
   EAST CENTRAL IOWA

CITY           SKY/WX    TMP DP  RH WIND       PRES   REMARKS
DAVENPORT      PTSUNNY   75  62  64 CALM      30.18S
6HR MIN TEMP:  65; 6HR MAX TEMP:  77;

IOWA CITY      CLOUDY    74  64  71 CALM      30.19F
6HR MIN TEMP:  66; 6HR MAX TEMP:  74;

MT. PLEASANT * RAIN      71  69  93 NE5       30.15F
MUSCATINE *    SUNNY     77  64  65 CALM      30.17F
QUAD CITIES      N/A     78  63  59 VRB3      30.16S HX  80
6HR MIN TEMP:  69; 6HR MAX TEMP:  79;

$$

IAZ062-063-075>077-085>089-095>099-271900-
   SOUTHEAST IOWA

CITY           SKY/WX    TMP DP  RH WIND       PRES   REMARKS
BURLINGTON       N/A     76  69  79 N9        30.15F
6HR MIN TEMP:  70; 6HR MAX TEMP:  77;

FAIRFIELD *    SUNNY     72  68  88 NE6       30.16F
FORT MADISON * LGT RAIN  75  72  88 N3        30.17S
KEOKUK *       SUNNY     77  72  83 VRB5      30.15S
OSKALOOSA *      N/A     71  68  89 E6        30.17F
CENTERVILLE *  CLOUDY    70  70 100 NE3       30.18F
OTTUMWA        LGT RAIN  70  67  90 E6        30.16S
6HR MIN TEMP:  66; 6HR MAX TEMP:  70; 6HR PCP:  0.10;

WASHINGTON *   MOSUNNY   73  68  83 E5        30.17F
$$

ABBREVIATIONS USED IN REMARKS
   TC - TEMPERATURES IN CELSIUS
  WCI - WIND CHILL INDEX
   HX - HEAT INDEX
  VSB - VISIBILITY
$$




USA.gov is the U.S. government's official web portal to all federal, state and local government web resources and services.